Fort Leonard Wood, MO

12:18 PM CDT on April 24, 2017 (GMT -0500)
Waynesville Regional At Forney Field

Weather History for KTBN - June, 2013

Change the Weather History Date:

Sunday, June 16, 2013

  Actual Average Record
Temperature  
Mean Temperature 76 °F -  
Max Temperature 85 °F 80 °F 94 °F (2016)
Min Temperature 67 °F 64 °F 57 °F (1999)
Cooling Degree Days 12    
Growing Degree Days 26 (Base 50)    
Moisture  
Dew Point 70 °F    
Average Humidity 90    
Maximum Humidity 100    
Minimum Humidity 61    
Precipitation  
Precipitation 0.29 in - - ()
Sea Level Pressure  
Sea Level Pressure 29.99 in    
Wind  
Wind Speed 7 mph (SSE)    
Max Wind Speed 18 mph    
Max Gust Speed 17 mph    
Visibility 9 miles    
Events Rain , Thunderstorm    
Averages and records for this station are not official NWS values.
T = Trace of Precipitation, MM = Missing Value Source: NWS Daily Summary

Daily Weather History Graph

Daily Weather History Graph

Search for Another Location

Airport or City:

Trip Planner

Search our weather history database for the weather conditions in past years. The results will help you decide how hot, cold, wet, or windy it might be!

Date:

Astronomy

Jun. 16, 2013 Rise Set
Actual Time 5:46 AM CDT 8:32 PM CDT
Civil Twilight 5:15 AM CDT 9:03 PM CDT
Nautical Twilight 4:35 AM CDT 9:42 PM CDT
Astronomical Twilight 3:51 AM CDT 10:27 PM CDT
Moon 1:14 PM CDT (6/16) 12:44 AM CDT (6/16)
Length of Visible Light 15h 48m
Length of Day
14h 46m
Waxing Crescent, 50% of the Moon is Illuminated
Jun 16
Waxing Crescent
Jun 16
First Quarter
Jun 23
Full
Jun 29
Last Quarter
Jul 8
New

Hourly Weather History & Observations

Time (CDT) Temp. Heat Index Dew Point Humidity Pressure Visibility Wind Dir Wind Speed Gust Speed Precip Events Conditions
12:58 AM 69.3 °F - 69.3 °F 100% 29.99 in 10.0 mi SE 8.1 mph - N/A   Overcast
1:06 AM 69.8 °F - 69.8 °F 100% 30.00 in 10.0 mi SE 6.9 mph - N/A   Light Drizzle
1:16 AM 69.8 °F - 69.8 °F 100% 29.99 in 10.0 mi SE 8.1 mph - N/A   Overcast
1:37 AM 69.8 °F - 69.8 °F 100% 29.97 in 10.0 mi SE 15.0 mph - N/A   Light Drizzle
1:47 AM 69.8 °F - 69.8 °F 100% 29.97 in 10.0 mi SE 11.5 mph - N/A   Overcast
1:58 AM 69.1 °F - 69.1 °F 100% 29.95 in 10.0 mi ESE 10.4 mph - 0.00 in   Overcast
1:59 AM 69.8 °F - 69.8 °F 100% 29.96 in 10.0 mi ESE 11.5 mph - N/A   Light Drizzle
2:09 AM 69.8 °F - 69.8 °F 100% 29.97 in 10.0 mi SE 9.2 mph - N/A   Overcast
2:58 AM 68.9 °F - 68.9 °F 100% 29.99 in 10.0 mi Variable 4.6 mph - 0.00 in   Overcast
3:36 AM 68.0 °F - 68.0 °F 100% 30.02 in 10.0 mi North 5.8 mph - N/A Rain Light Rain
3:58 AM 68.2 °F - 68.2 °F 100% 30.00 in 9.0 mi NE 3.5 mph - 0.01 in Rain Light Rain
4:07 AM 68.0 °F - 68.0 °F 100% 30.01 in 10.0 mi ENE 2.3 mph - N/A   Overcast
4:58 AM 68.2 °F - 68.2 °F 100% 30.00 in 10.0 mi South 3.5 mph - 0.00 in   Overcast
5:37 AM 68.0 °F - 68.0 °F 100% 30.00 in 10.0 mi SE 8.1 mph - N/A Thunderstorm Thunderstorm
5:52 AM 68.0 °F - 68.0 °F 100% 30.01 in 10.0 mi SSW 2.3 mph - N/A   Overcast
5:58 AM 68.2 °F - 68.2 °F 100% 29.99 in 10.0 mi WNW 2.3 mph - N/A   Overcast
6:58 AM 69.4 °F - 69.4 °F 100% 29.99 in 10.0 mi SSE 5.8 mph - N/A   Overcast
7:48 AM 69.8 °F - 69.8 °F 100% 30.02 in 10.0 mi South 1.2 mph - N/A Rain Light Rain
7:51 AM 69.8 °F - 69.8 °F 100% 30.02 in 10.0 mi SW 3.5 mph - N/A Rain , Thunderstorm Light Thunderstorms and Rain
7:58 AM 70.2 °F - 70.2 °F 100% 30.01 in 6.0 mi South 8.1 mph - 0.01 in Rain , Thunderstorm Light Thunderstorms and Rain
8:03 AM 69.8 °F - 69.8 °F 100% 30.02 in 2.0 mi Variable 6.9 mph - N/A Rain , Thunderstorm Heavy Thunderstorms and Rain
8:08 AM 69.8 °F - 69.8 °F 100% 30.03 in 1.5 mi South 8.1 mph - N/A Rain , Thunderstorm Thunderstorms and Rain
8:13 AM 68.0 °F - 68.0 °F 100% 30.03 in 3.0 mi South 6.9 mph - N/A Rain , Thunderstorm Light Thunderstorms and Rain
8:18 AM 68.0 °F - 68.0 °F 100% 30.02 in 2.5 mi South 12.7 mph 17.3 mph N/A Rain , Thunderstorm Light Thunderstorms and Rain
8:28 AM 68.0 °F - 68.0 °F 100% 30.02 in 3.0 mi Variable 6.9 mph 17.3 mph N/A Rain , Thunderstorm Light Thunderstorms and Rain
8:47 AM 69.8 °F - 69.8 °F 100% 30.02 in 10.0 mi South 6.9 mph - N/A Thunderstorm Thunderstorm
8:48 AM 69.8 °F - 69.8 °F 100% 30.02 in 10.0 mi South 5.8 mph - N/A Thunderstorm Mostly Cloudy
8:58 AM 70.7 °F - 70.7 °F 100% 30.01 in 10.0 mi South 5.8 mph - 0.23 in   Overcast
9:14 AM 71.6 °F - 71.6 °F 100% 30.02 in 10.0 mi SSW 5.8 mph - N/A   Light Drizzle
9:23 AM 71.6 °F - 69.8 °F 94% 30.02 in 10.0 mi Variable 6.9 mph - N/A   Mostly Cloudy
9:58 AM 72.0 °F - 71.1 °F 97% 30.01 in 10.0 mi SSW 6.9 mph - 0.00 in   Scattered Clouds
10:58 AM 72.3 °F - 69.4 °F 91% 30.01 in 10.0 mi Variable 5.8 mph - N/A   Mostly Cloudy
11:02 AM 71.6 °F - 69.8 °F 94% 30.02 in 10.0 mi SSW 6.9 mph - N/A   Light Drizzle
11:35 AM 73.4 °F - 71.6 °F 94% 30.03 in 10.0 mi Variable 5.8 mph - N/A Rain , Thunderstorm Light Thunderstorms and Rain
11:50 AM 71.6 °F - 69.8 °F 94% 30.02 in 9.0 mi Variable 3.5 mph - N/A Rain , Thunderstorm Light Rain
11:58 AM 72.3 °F - 70.9 °F 95% 29.99 in 9.0 mi Variable 5.8 mph - 0.02 in Rain Light Rain
12:06 PM 73.4 °F - 71.6 °F 94% 30.00 in 10.0 mi Variable 5.8 mph - N/A   Mostly Cloudy
12:58 PM 79.0 °F - 73.6 °F 83% 29.99 in 10.0 mi WSW 4.6 mph - 0.00 in   Partly Cloudy
1:58 PM 81.7 °F 87.1 °F 73.6 °F 76% 29.97 in 10.0 mi Variable 4.6 mph - N/A   Scattered Clouds
2:58 PM 84.2 °F 91.9 °F 74.7 °F 73% 29.95 in 10.0 mi Variable 3.5 mph - N/A   Partly Cloudy
3:28 PM 84.2 °F 92.3 °F 75.2 °F 74% 29.97 in 10.0 mi Variable 5.8 mph - N/A   Mostly Cloudy
3:38 PM 84.2 °F 90.9 °F 73.4 °F 70% 29.96 in 10.0 mi SW 4.6 mph - N/A   Scattered Clouds
3:58 PM 85.3 °F 93.7 °F 75.0 °F 71% 29.94 in 10.0 mi Variable 2.3 mph - N/A   Scattered Clouds
4:58 PM 85.3 °F 93.4 °F 74.5 °F 70% 29.93 in 10.0 mi SSW 4.6 mph - N/A   Partly Cloudy
5:37 PM 84.2 °F 92.3 °F 75.2 °F 74% 29.95 in 10.0 mi South 5.8 mph - N/A Thunderstorm Thunderstorm
5:58 PM 83.8 °F 92.1 °F 75.4 °F 76% 29.93 in 10.0 mi SSW 2.3 mph - N/A Thunderstorm Thunderstorm
6:38 PM 77.0 °F - 68.0 °F 74% 29.95 in 10.0 mi ESE 4.6 mph - N/A Thunderstorm Mostly Cloudy
6:48 PM 78.8 °F - 71.6 °F 78% 29.94 in 10.0 mi ESE 10.4 mph - N/A Thunderstorm Thunderstorm
6:58 PM 79.2 °F - 66.9 °F 66% 29.93 in 10.0 mi East 12.7 mph - N/A Thunderstorm Thunderstorm
7:08 PM 77.0 °F - 69.8 °F 78% 29.94 in 10.0 mi SE 17.3 mph - N/A Thunderstorm Thunderstorm
7:09 PM 77.0 °F - 68.0 °F 74% 29.94 in 10.0 mi SE 18.4 mph - N/A Thunderstorm Mostly Cloudy
7:12 PM 77.0 °F - 66.2 °F 69% 29.93 in 10.0 mi SE 18.4 mph - N/A Thunderstorm Mostly Cloudy
7:18 PM 77.0 °F - 66.2 °F 69% 29.94 in 10.0 mi South 8.1 mph - N/A Thunderstorm Thunderstorm
7:33 PM 77.0 °F - 62.6 °F 61% 29.96 in 10.0 mi Variable 2.3 mph - N/A Thunderstorm Scattered Clouds
7:53 PM 75.2 °F - 66.2 °F 73% 29.95 in 10.0 mi NE 8.1 mph - N/A Rain Light Rain
7:58 PM 74.3 °F - 66.7 °F 77% 29.93 in 10.0 mi ESE 2.3 mph - 0.00 in Rain Light Rain
8:06 PM 71.6 °F - 69.8 °F 94% 29.94 in 10.0 mi WSW 3.5 mph - N/A   Scattered Clouds
8:58 PM 71.6 °F - 68.0 °F 88% 29.94 in 10.0 mi SE 1.2 mph - 0.00 in   Partly Cloudy
9:58 PM 69.3 °F - 66.7 °F 92% 29.96 in 10.0 mi ENE 8.1 mph - N/A   Scattered Clouds
10:58 PM 69.4 °F - 66.7 °F 91% 29.99 in 10.0 mi SW 3.5 mph - N/A   Scattered Clouds
11:21 PM 69.8 °F - 66.2 °F 88% 30.03 in 10.0 mi WNW 6.9 mph - N/A Thunderstorm Thunderstorm
11:31 PM 69.8 °F - 66.2 °F 88% 30.03 in 10.0 mi NNW 5.8 mph - N/A Rain , Thunderstorm Light Thunderstorms and Rain
11:36 PM 69.8 °F - 68.0 °F 94% 30.02 in 10.0 mi NNW 5.8 mph - N/A Rain Light Rain
11:58 PM 67.6 °F - 67.6 °F 100% 29.99 in 8.0 mi SW 4.6 mph - 0.02 in Rain Light Rain